#timestamp,LO_Frequency,Hit 
1503558015.1,286047000.0,N
1503558035.8,286046999.9,N
1503558055.7,286046996.9,N
1503558075.5,286046995.7,N
1503558095.3,286046999.5,N
1503558115.2,286046999.5,N
1503558135.9,286046995.0,N
1503558155.7,286046997.0,N
1503558175.6,286047002.5,N
1503558195.4,286046997.5,N
1503558215.2,286046996.5,N
1503558235.0,286046998.9,N
1503558236.0,286046998.9,N
1503558255.8,286046999.2,N
1503558275.6,286047002.6,N
1503558295.4,286046999.7,N
1503558315.3,286046998.6,N
1503558335.1,286046991.7,P
1503558355.9,286046996.0,N
1503558375.7,286046991.8,N
1503558395.5,286046993.7,N
1503558415.3,286046995.9,N
1503558435.2,286046999.6,N
1503558455.0,286046997.9,N
1503558455.9,286046997.9,N
1503558475.7,286047000.1,N
1503558495.6,286047000.3,N
1503558515.4,286046998.9,N
1503558535.2,286047000.3,N
1503558555.1,286047001.6,N
1503558556.0,286047001.6,N
1503558575.8,286046998.3,N
1503558595.6,286046999.2,N
1503558615.5,286046997.3,N
1503558635.3,286046996.2,N
1503558655.1,286046995.7,N
1503558675.9,286046995.7,N
1503558695.7,286046997.8,N
1503558715.5,286046991.9,N
1503558735.4,286046989.4,P
1503558755.2,286046994.1,N
1503558775.0,286046993.7,N
1503558775.9,286046993.7,N
1503558795.8,286046993.6,N
1503558815.6,286046995.4,N
1503558835.4,286046995.6,N
1503558855.3,286046998.0,N
1503558875.1,286046991.8,P
1503558876.0,286046991.8,P
1503558895.8,286046998.2,N
1503558915.7,286047000.8,N
1503558935.5,286047001.3,N
1503558955.3,286047003.2,N
1503558975.2,286047005.6,N
1503558995.9,286047003.1,N
1503559015.7,286047003.7,N
1503559035.6,286047002.6,N
1503559055.4,286047000.0,N
1503559075.2,286046998.5,N
1503559095.0,286046998.8,N
1503559095.9,286046998.8,N
1503559115.8,286046998.5,N
1503559135.6,286046997.6,N
1503559155.4,286046996.5,N
1503559175.3,286046996.0,N
1503559195.1,286046998.9,N
1503559215.8,286046996.0,N
1503559235.7,286046996.6,N
1503559255.5,286046999.7,N
1503559275.3,286046999.5,N
1503559295.2,286047000.2,N
1503559315.9,286046995.6,N
1503559335.7,286046995.7,N
1503559355.6,286046993.9,N
1503559375.4,286046996.0,N
1503559395.2,286046993.4,N
1503559415.0,286046997.7,N
1503559415.9,286046997.7,N
1503559435.8,286046997.5,N
1503559455.6,286047001.2,N
1503559475.4,286046997.4,N
1503559495.3,286046999.4,N
1503559515.1,286046998.4,N
1503559535.8,286046999.6,N
1503559555.7,286046998.8,N
1503559575.5,286047001.0,N
1503559595.3,286047000.3,N
1503559615.2,286046999.0,N
1503559635.9,286046996.8,N
1503559655.7,286046999.6,N
1503559675.6,286047002.4,N
1503559695.4,286046994.9,N
1503559715.2,286046996.4,N
1503559735.1,286046993.3,P
1503559736.0,286046993.3,N
1503559755.8,286046997.3,N
1503559775.6,286046997.5,N
1503559795.5,286046997.3,N
1503559815.3,286046998.6,N
1503559835.1,286047000.6,N
1503559855.4,286046997.4,N
1503559875.2,286046996.4,N
1503559895.0,286046996.1,N
1503559895.9,286046996.1,N
1503559915.8,286046995.1,N
1503559935.6,286046999.3,N
1503559955.4,286046997.1,N
1503559975.3,286046995.3,N
1503559995.1,286046999.5,N
1503559996.0,286046999.5,N
1503560015.8,286046997.3,N
1503560035.7,286046997.8,N
1503560055.5,286046998.4,N
1503560075.3,286047000.3,N
1503560095.1,286046997.1,N
1503560115.9,286046995.0,N
1503560135.7,286046997.8,N
1503560155.5,286046997.9,N
1503560175.4,286046996.7,N
1503560195.2,286046999.6,N
1503560215.0,286047000.7,N
1503560215.9,286047000.7,N
1503560235.8,286047002.6,N
1503560255.6,286047003.8,N
1503560275.4,286047002.6,N
1503560295.3,286047002.3,N
1503560315.1,286047000.6,N
1503560316.0,286047000.6,N
1503560335.8,286046999.9,N
1503560355.7,286047002.2,N
1503560375.5,286046998.9,N
1503560395.3,286046999.1,N
1503560415.2,286046997.8,N
1503560435.9,286046997.3,N
1503560455.7,286046998.9,N
1503560475.5,286046995.8,N
1503560495.4,286046999.1,N
1503560515.2,286046995.3,N
1503560535.0,286046995.0,N
1503560535.9,286046995.0,N
1503560555.8,286046997.9,N
1503560575.6,286046995.6,N
1503560595.4,286046996.2,N
1503560615.3,286046993.5,N
1503560635.1,286046992.0,P
1503560655.8,286046992.3,N
1503560675.7,286046990.9,P
1503560695.5,286046990.6,P
1503560715.3,286046995.6,P
1503560735.2,286046996.2,N
1503560755.0,286046999.6,N
1503560755.9,286046999.6,N
1503560775.7,286047000.3,N
1503560795.6,286047000.6,N
1503560815.4,286047002.4,N
1503560835.2,286046999.9,N
1503560855.1,286047003.8,N
1503560856.0,286047003.8,N
1503560875.8,286047007.6,N
1503560895.6,286047005.7,N
1503560915.5,286047003.8,N
1503560935.3,286047001.4,N
1503560955.1,286047000.1,N
1503560975.9,286047003.9,N
1503560995.7,286047001.8,N
1503561015.5,286047000.0,N
1503561035.3,286047002.4,N
1503561055.2,286046999.0,N
1503561075.0,286047000.7,N
1503561075.9,286047000.7,N
1503561095.7,286047000.7,N
1503561115.6,286046999.3,N
1503561135.4,286046998.9,N
1503561155.2,286047000.2,N
1503561175.1,286047001.6,N
1503561176.0,286047001.6,N
1503561195.8,286047000.5,N
1503561215.6,286047005.5,N
1503561235.5,286047005.0,N
1503561255.3,286047004.7,N
1503561275.1,286047001.5,N
1503561295.9,286046996.5,N
1503561315.7,286047003.6,N
1503561335.5,286047005.8,N
1503561355.4,286047004.0,N
1503561375.2,286047003.6,N
1503561395.0,286047005.7,N
1503561395.9,286047005.7,N
1503561415.8,286046999.9,N
1503561435.6,286047000.1,N
1503561455.4,286047004.2,N
1503561475.3,286047002.6,N
1503561495.1,286047003.4,N
1503561496.0,286047003.4,N
1503561515.8,286047002.9,N
1503561535.7,286047005.6,N
1503561555.5,286047003.0,N
1503561575.3,286047004.8,N
1503561595.1,286047003.0,N
